Location: West Sayville
(40.7279°N, 73.0976°W)
Time: 08:47:52
(UTC+00:00)

Aureole 3 - Pass Details

Date: 29 October 2020
Orbit: 382 x 1232 km, 82.5° (Epoch: 23 November)

Event Time Altitude Azimuth Distance (km) Brightness Sun altitude
Rises 22:31:24 0° 181° (S) 2,424 6.8 -8.1°
Reaches altitude 10° 22:33:32 10° 178° (S) 1,489 5.7 -8.5°
Maximum altitude 22:36:38 64° 96° (E) 438 2.6 -9.1°
Drops below altitude 10° 22:39:35 10° 14° (NNE) 1,411 5.2 -9.6°
Sets 22:41:33 0° 11° (N) 2,280 6.3 -10.0°
